星链-32924 (STARLINK-32924)

导读

STARLINK-32924是美国SpaceX星链星座的卫星,于2025年2月23日发射。星链项目旨在构建全球卫星互联网星座,为全球各地提供高速低延迟宽带网络服务,尤其覆盖偏远和网络基础设施薄弱区域。该卫星延续星链设计,承担卫星互联网通信节点任务,是星链星座大规模扩容建设中的一环,推动全球网络覆盖范围进一步拓展。

基本信息
目录编号:
63092
目录名称:
STARLINK-32924
国际标识:
2025-037R
轨道中心:
EARTH
卫星名称:
星链-32924
卫星全名:
星链-32924 (STARLINK-32924)
卫星状态:
在轨 (已飞行476 天)
发射日期:
2025-02-23 UTC
国别 :
美国 (US)
星等 :
--
轨道信息
数据来源 国际轨道数据
星历时间: 2026-06-14T05:10:38+0800
10小时前
查看轨道信息
半长轴: 6950.172km
偏心率: 0.0003213
轨道倾角: 70.001°
近地点辐角 262.984°
升交点赤经 111.805°
平近点角 97.096°
近地点: 569.801km
远地点: 574.269km
周期: 96.107分钟
每日圈数: 14.983368
详细信息
固有亮度:
5
最大亮度:
2.5
卫星平台:
Starlink V1.0
覆盖范围:
全球
运营商:
太空探索技术公司
运营商所在国:
美国
制造商(研发单位):
太空探索技术公司
制造商所在国:
美国
使用方式:
暂无
卫星简介
Starlink 计划是 SpaceX 推出的全球卫星互联网项目,通过发射低轨道卫星,为全球尤其是偏远地区提供高速、低延迟的互联网服务。自 2019 年起,Starlink 已部署数千颗卫星,旨在缩小全球数字鸿沟,推动互联网普及。该项目还为军事、航空等行业提供通信支持,带来广泛经济效益。
2D轨道图
3D轨道图
轨道高度分析图
轨道倾角分析图
轨道综合分析图
查看轨道综合分析图